Location: Nelson Place
(34.7767°N, 106.3347°W)
Time: 02:39:02
(UTC+00:00)

Daily predictions for brighter satellites

Satellite Brightness Start Highest point End
(mag) Time Altitude Azimuth Time Altitude Azimuth Time Altitude Azimuth
Cosmos 2233 Rocket 4.1 02:29:44 10° S 02:35:57 64° E 02:42:11 10° NNE
Timation 1 Rocket 4.4 02:36:31 10° NNW 02:42:31 70° ENE 02:48:29 10° SSE
ATLAS 2AS CENTAUR R/B 3.9 02:36:38 10° SSE 02:42:37 25° ESE 02:48:33 10° ENE
IGS 5A 4.2 02:39:02 10° SE 02:42:48 35° ENE 02:46:37 10° N
Spot 2 4.2 02:39:28 10° SSE 02:43:24 50° ENE 02:47:18 10° N
Cosmos 1666 2.8 02:41:44 10° N 02:45:31 76° W 02:49:15 10° S
BREEZE-M DEB (TANK) 3.4 02:42:47 10° NW 02:46:16 58° NE 02:51:12 10° ESE
NOSS 3-4 (A) 3.2 02:41:43 10° SSW 02:47:21 84° ESE 02:53:16 10° NNE
NOSS 3-4 (C) 3.2 02:41:45 10° SSW 02:47:24 83° ESE 02:53:21 10° NNE
Cosmos 968 Rocket 3.6 02:45:58 10° SSW 02:51:08 85° WNW 02:56:17 10° NNE
CZ-4B R/B 2.6 02:48:44 10° NE 02:51:13 21° E 02:53:41 10° SSE
MetOp-A 3.5 02:49:11 10° SSE 02:53:15 59° ENE 02:57:05 10° N
COBE Rocket 4.3 02:48:26 10° SSE 02:53:24 52° ENE 02:58:15 10° N
Cosmos 2219 4.3 02:50:42 10° N 02:55:32 29° ENE 02:59:50 12° ESE
NOSS 3-2 (A) 4.3 02:49:37 10° NNW 02:57:36 81° WSW 03:06:28 10° SSE
SWIFT 4.5 02:59:15 10° S 02:59:51 10° S 03:00:27 10° SSE
H-2A R/B 1.9 02:58:33 10° NNE 03:02:37 64° ESE 03:06:42 10° S
Cosmos 1328 Rocket 3.5 02:59:19 10° S 03:03:33 64° E 03:07:50 10° NNE
OBJECT-B 2.6 03:02:24 10° SSW 03:04:55 26° W 03:07:26 10° NW
USA 186 2.7 03:04:18 10° SSW 03:06:35 33° W 03:08:48 10° NNW
Meteor 2-6 Rocket 4.4 03:02:17 10° SSW 03:07:39 73° W 03:13:06 10° N
RESURS DK-1 4.0 03:09:41 16° ESE 03:09:59 16° ESE 03:12:28 10° ENE
Aureole 1 Rocket 2.6 03:06:42 10° S 03:10:08 45° ESE 03:13:07 10° NNE
Cosmos 1536 4.1 03:08:43 10° NNE 03:11:59 23° ENE 03:13:43 18° ESE
Cosmos 2208 Rocket 4.2 03:06:59 10° N 03:12:23 63° ENE 03:16:48 15° SSE
Cosmos 2344 3.5 03:05:14 10° SSW 03:13:06 63° ESE 03:20:21 10° NE
IRAS Rocket 4.4 03:07:49 10° NNE 03:13:19 52° ESE 03:18:46 10° S
NOSS 3-2 (C) 4.2 03:08:15 10° NNW 03:16:11 80° ENE 03:23:44 16° SE
CSL-04 Rocket 4.3 03:12:39 10° S 03:17:49 55° W 03:23:04 10° NNW
SL-4 R/B 3.9 03:15:14 10° NNW 03:19:00 24° NNE 03:22:14 12° E
Cosmos 1544 3.7 03:16:37 10° NNW 03:20:02 52° W 03:23:27 10° S
Ariane Rocket 3.7 03:18:14 18° SE 03:21:21 36° ENE 03:25:59 10° N
CENTAUR R/B 3.7 03:16:11 10° NW 03:24:41 64° WSW 03:33:20 11° SSE
Cosmos 2227 Rocket 2.4 03:19:10 10° NNW 03:24:45 58° ENE 03:28:30 21° SE
Cosmos 1151 Rocket 4.5 03:22:09 10° SSW 03:26:09 38° W 03:30:09 10° N
Cosmos 1980 Rocket 2.3 03:22:44 10° S 03:28:10 54° ESE 03:33:39 10° NNE
Resurs 1-3 3.9 03:25:43 10° S 03:29:59 64° WSW 03:34:21 10° NNW
ASTRO E2 3.0 03:27:13 10° W 03:30:58 47° S 03:32:28 30° SE
Cosmos 1933 Rocket 4.4 03:28:58 10° NNE 03:33:01 33° E 03:34:30 26° ESE
Cosmos 1666 Rocket 4.1 03:30:46 10° NNW 03:35:05 57° W 03:39:21 10° S
Cosmos 2369 3.6 03:30:28 10° SSW 03:36:05 76° ESE 03:41:44 10° NNE
USA 238 DEB 4.0 03:28:49 10° NNW 03:36:17 80° WSW 03:42:06 19° SSE
USA 238 4.0 03:28:56 10° NNW 03:36:24 80° WSW 03:42:11 20° SSE
MOS 1 4.2 03:33:05 18° SSE 03:37:22 79° ENE 03:43:02 10° N
Cosmos 1072 Rocket 4.4 03:31:41 10° S 03:37:44 74° E 03:43:50 10° N
Cosmos 44 4.4 03:35:43 10° NW 03:39:33 32° WSW 03:42:47 14° S
Terra 3.9 03:40:18 12° ENE 03:41:18 13° ENE 03:43:17 10° NE
SJ 16-02 1.8 03:39:52 30° SE 03:41:20 40° E 03:45:25 10° NNE
Helios 1A Rocket 4.5 03:41:33 19° E 03:42:05 19° ENE 03:44:57 10° NNE
Cosmos 1633 Rocket 3.6 03:39:39 10° NNW 03:43:55 55° W 03:47:27 14° SSW
Cosmos 1697 Rocket 3.7 03:41:56 10° SW 03:47:22 47° WNW 03:52:50 10° N
Landsat 7 4.5 03:46:15 14° S 03:50:06 51° W 03:54:43 10° NNW
OAO 3 Rocket 3.2 03:45:29 10° W 03:50:25 88° S 03:52:53 30° E
SPOT 3 Rocket 4.0 03:49:44 31° ESE 03:51:39 44° ENE 03:56:30 10° N
Cosmos 1354 Rocket 3.9 03:47:40 10° S 03:52:49 75° ESE 03:58:06 10° NNE
Cosmos 1777 Rocket 4.3 03:51:22 32° SSE 03:53:06 43° ESE 03:58:01 10° NNE
Cosmos 1515 4.4 03:50:28 13° SSW 03:53:44 52° W 03:57:25 10° N
Cosmos 1470 Rocket 3.6 03:50:20 10° N 03:54:39 76° W 03:56:45 29° S
Resurs 01 Rocket 1.8 03:53:43 27° S 03:56:04 70° W 04:00:27 10° NNW
MetOp-B 4.1 03:59:02 34° SSE 04:01:22 73° ENE 04:06:43 10° N
Cosmos 2297 Rocket 3.2 03:56:17 10° NW 04:01:33 42° WSW 04:05:26 17° SSW
Cosmos 1515 Rocket 4.4 03:58:59 10° SSW 04:03:08 48° W 04:07:23 10° N
Cosmos 1340 3.9 04:03:00 13° SSW 04:05:59 40° W 04:09:31 10° N
Cosmos 2034 Rocket 3.9 04:01:51 22° S 04:06:02 79° E 04:12:23 10° N
Cosmos 1184 Rocket 3.8 04:05:15 29° SW 04:06:14 39° W 04:09:06 10° N
Cosmos 389 Rocket 2.3 04:02:51 10° N 04:06:23 88° WSW 04:06:37 77° S
Cosmos 405 4.4 04:03:40 10° NNW 04:06:46 33° W 04:08:03 24° SW
ATLAS 5 CENTAUR R/B 3.8 04:04:24 10° WSW 04:09:23 14° SW 04:11:26 12° SSW
Meteor 2-9 Rocket 4.5 04:06:27 10° N 04:12:03 51° E 04:13:24 42° ESE
USA 215 4.4 04:07:35 10° ENE 04:10:52 23° E 04:10:52 23° E
SL-16 R/B 3.0 04:15:42 31° E 04:15:42 31° E 04:20:02 10° NE
Cosmos 2228 Rocket 3.1 04:14:40 57° SE 04:15:11 63° E 04:19:42 10° NNE
CARTOSAT-1 3.4 04:15:24 61° SSE 04:16:08 85° ENE 04:20:28 10° N
Cosmos 921 Rocket 3.0 04:12:48 10° N 04:17:17 65° ENE 04:17:43 61° ESE
Cosmos 1743 3.4 04:15:52 10° NNW 04:19:31 49° W 04:20:13 42° SW
CZ-4B R/B 4.4 04:21:03 10° NW 04:22:34 13° WNW 04:24:05 10° W
Cosmos 1869 Rocket 3.7 04:18:33 10° N 04:22:57 56° E 04:22:58 56° E
Meteor 1-18 Rocket 4.2 04:22:31 48° SSE 04:23:57 65° E 04:29:34 10° NNE
USA 245 4.3 04:28:38 45° S 04:30:31 80° WSW 04:36:49 10° NNW
ATLAS 2AS CENTAUR R/B 3.3 04:25:18 10° SW 04:33:02 65° WNW 04:40:40 10° NNE
ERS-1 Rocket 3.0 04:32:44 56° E 04:33:07 58° ENE 04:38:03 10° N
Cosmos 2278 4.0 04:30:19 14° SSW 04:35:05 65° WNW 04:40:44 10° NNE
ARIANE 5 R/B 3.6 04:38:20 36° NE 04:38:20 36° NE 04:41:55 10° N
Cosmos 2219 4.4 04:34:39 10° NW 04:39:37 33° WSW 04:41:46 25° SW
Cosmos 2360 Rocket 4.0 04:43:37 18° ENE 04:43:37 18° ENE 04:45:34 10° NE
Cosmos 2195 Rocket 4.5 04:35:12 10° N 04:41:32 70° E 04:42:43 57° SE
Cosmos 1707 Rocket 4.0 04:43:16 53° NE 04:43:16 53° NE 04:46:49 10° NNE
Cosmos 2082 3.9 04:41:33 10° NNW 04:47:06 61° WSW 04:48:04 53° SSW
RESURS DK-1 3.9 04:45:23 19° WSW 04:47:38 33° WNW 04:51:24 10° N
Cosmos 1378 4.3 04:50:33 41° NNW 04:50:33 41° NNW 04:53:08 10° N
EXPRESS MD2 4.4 04:45:25 10° NW 04:48:30 38° NW 04:48:30 38° NW
Cosmos 1428 Rocket 4.4 04:43:33 10° N 04:49:53 75° E 04:50:52 63° SE
Cosmos 2263 Rocket 2.1 04:46:25 10° NNW 04:51:59 68° ENE 04:52:15 67° E
SL-4 R/B 3.1 04:54:29 10° NW 04:57:41 41° W 04:57:41 41° W
ATLAS 3B R/B 3.7 04:59:14 10° NNW 05:06:08 39° NE 05:08:17 33° E
Cosmos 2227 Rocket 4.4 05:04:57 10° WNW 05:08:12 16° W 05:10:21 13° WSW
Cosmos 1092 Rocket 4.0 05:03:11 10° N 05:09:18 70° W 05:10:09 62° SW
Cosmos 1634 Rocket 4.1 05:08:17 52° SW 05:09:40 68° W 05:15:51 10° N
ISS -0.9 05:11:13 10° NNW 05:12:25 16° N 05:12:25 16° N
SPOT 5 3.7 05:13:35 46° WSW 05:13:51 47° W 05:18:53 10° NNW
Cosmos 2142 Rocket 4.4 05:13:34 78° SSE 05:13:57 83° E 05:20:23 10° N
Cosmos 1975 4.3 05:14:03 10° NNW 05:16:41 36° NW 05:16:41 36° NW
Cosmos 1733 Rocket 4.1 05:13:52 10° N 05:16:54 43° N 05:16:54 43° N
Terra 2.4 05:19:10 53° WNW 05:19:10 53° WNW 05:23:12 10° NNW
Cosmos 2322 Rocket 2.3 05:20:36 70° NNE 05:20:36 70° NNE 05:25:34 10° NNE
SJ 16-02 4.1 05:17:34 10° W 05:20:02 15° WNW 05:22:31 10° NNW
Cosmos 2333 Rocket 4.0 05:25:37 20° ENE 05:25:37 20° ENE 05:27:41 10° NE
Meteor 2-15 Rocket 4.3 05:23:45 82° WSW 05:23:52 83° W 05:29:58 10° N
Cosmos 1844 Rocket 4.0 05:27:02 10° N 05:31:29 28° NE 05:31:29 28° NE
Cosmos 2219 Rocket 3.9 05:47:59 21° ENE 05:47:59 21° ENE 05:50:10 10° NE
USA 215 3.4 05:49:47 10° NE 05:56:17 68° NW 05:58:09 47° WSW
SL-16 R/B 3.7 05:57:29 26° W 05:59:04 30° WNW 06:04:01 10° N
ADEOS Rocket 4.4 06:03:06 25° ENE 06:03:06 25° ENE 06:07:19 10° NNE
Cosmos 2266 Rocket 4.2 06:04:56 10° N 06:10:11 66° N 06:10:11 66° N
COSMOS 2428 4.2 06:18:12 27° NE 06:18:12 27° NE 06:20:59 10° NE
Cosmos 2360 Rocket 3.2 06:25:19 40° NW 06:25:19 40° NW 06:30:13 10° N
ATLAS CENTAUR R/B 3.6 06:35:23 10° NNW 06:37:56 27° N 06:37:56 27° N
Cosmos 2278 Rocket 4.3 06:46:12 10° NNE 06:49:50 17° NE 06:50:48 16° ENE
ATLAS 3B R/B 3.7 06:49:55 10° NW 06:55:31 40° W 06:55:31 40° W
Cosmos 1553 Rocket 4.5 07:01:53 54° NNE 07:01:53 54° NNE 07:06:38 10° N
NOSS 3-1 (C) 4.3 06:58:58 10° NNW 07:06:49 70° ENE 07:07:55 64° E
Cosmos 2333 Rocket 3.6 07:07:35 32° NW 07:07:35 32° NW 07:12:04 10° N
Cosmos 1844 Rocket 4.5 07:10:42 10° NW 07:13:07 23° WNW 07:13:07 23° WNW
NOSS 0 Rocket 4.4 07:25:16 57° NNE 07:25:16 57° NNE 07:30:09 10° NNE
CZ-4C R/B 3.3 07:19:07 10° NNW 07:26:44 64° ENE 07:28:18 55° ESE
Cosmos 2219 Rocket 3.7 07:29:40 28° NW 07:29:40 28° NW 07:33:53 10° N
Lacrosse 5 4.0 07:35:14 19° ENE 07:35:14 19° ENE 07:36:52 10° NE
Cosmos 1745 Rocket 4.3 07:38:01 10° N 07:43:10 63° N 07:43:10 63° N
ADEOS Rocket 4.3 07:50:02 28° WNW 07:50:02 28° WNW 07:53:15 10° NNW
CZ-2D R/B 3.9 07:44:28 10° NE 07:47:44 23° ENE 07:47:44 23° ENE
Cosmos 2237 Rocket 2.8 07:58:41 52° N 07:58:41 52° N 08:03:07 10° NNE
COSMOS 2428 4.4 08:00:10 23° WNW 08:00:10 23° WNW 08:04:29 10° N
USA 267 3.3 08:11:25 65° WNW 08:11:25 65° WNW 08:16:58 10° NW
Resurs 1-4 Rocket 3.0 08:12:01 10° NNE 08:16:15 43° ENE 08:16:15 43° ENE
SL-16 R/B 3.9 08:15:02 23° ESE 08:17:41 32° ENE 08:23:06 10° N
Cosmos 1943 Rocket 4.0 08:16:55 10° N 08:21:37 26° ENE 08:25:08 15° ESE
USA 229 DEB 3.8 08:15:49 10° NNW 08:23:24 88° WSW 08:24:29 70° SSE
USA 229 3.8 08:15:55 10° NNW 08:23:30 89° WSW 08:24:38 69° SSE
ADEOS II 3.3 08:27:41 10° NE 08:32:23 33° E 08:32:23 33° E
IDEFIX/ARIANE 42P 4.1 08:28:21 10° NE 08:32:46 27° E 08:33:04 27° ESE
Cosmos 1455 Rocket 4.4 08:28:46 10° N 08:31:35 38° N 08:31:35 38° N
Cosmos 839 Rocket 4.2 08:27:24 10° NNW 08:34:05 87° WSW 08:35:17 66° SSE
Cosmos 2278 Rocket 3.0 08:28:45 10° NNW 08:32:36 42° NW 08:32:36 42° NW
Cosmos 2315 Rocket 4.4 08:34:57 53° WNW 08:34:57 53° WNW 08:40:47 10° N
Cosmos 1709 Rocket 4.3 08:32:38 10° NNW 08:37:50 53° WNW 08:37:50 53° WNW
Thor Agena Rocket 4.3 08:34:12 10° N 08:38:29 46° NW 08:38:29 46° NW
CZ-4 R/B 4.4 08:37:52 10° NNE 08:41:24 52° NNE 08:41:24 52° NNE
FALCON 9 R/B 4.5 08:03:35 10° W 08:43:59 75° SSW 08:52:57 10° ESE
SL-16 R/B 2.2 08:45:29 79° N 08:45:29 79° N 08:50:50 10° NNE
NPP 3.7 08:41:26 10° NNE 08:46:35 74° ENE 08:46:35 74° ENE
Cosmos 1455 4.2 08:44:08 10° NNE 08:46:22 26° NE 08:46:22 26° NE
Cosmos 1025 Rocket 4.4 08:51:25 33° NNW 08:51:25 33° NNW 08:53:59 10° N
NOSS 3-1 (A) 4.4 08:42:22 10° NW 08:50:04 50° WSW 08:50:04 50° WSW
COSMOS 2455 2.8 08:57:22 69° SE 08:57:46 72° ESE 09:03:45 10° NNE
MOS 1 Rocket 3.9 09:00:28 46° ENE 09:00:30 46° ENE 09:04:36 10° N
Meteor 1-24 Rocket 3.9 09:05:48 54° WNW 09:05:48 54° WNW 09:10:59 10° N
ATLAS 5 CENTAUR R/B 4.5 09:02:34 10° NW 09:04:56 18° WNW 09:04:56 18° WNW
CZ-4C R/B 4.1 09:08:31 10° NW 09:13:24 27° W 09:13:24 27° W
Lacrosse 5 3.1 09:14:25 30° WNW 09:15:09 31° NW 09:19:41 10° NNE
Nadezhda 1 Rocket 4.0 09:13:36 55° S 09:15:09 83° E 09:21:29 10° N
Cosmos 1269 Rocket 3.9 09:11:55 10° NNW 09:16:56 69° W 09:16:56 69° W
MSX 4.1 09:13:15 10° NNE 09:18:57 60° E 09:20:38 43° SSE
Lacrosse 5 rocket 2.7 09:19:29 29° NNW 09:19:29 29° NNW 09:22:31 10° NNE
Cosmos 1544 Rocket 4.1 09:15:14 10° NNW 09:18:37 49° NW 09:18:37 49° NW
Helios 1A 3.7 09:19:40 44° ESE 09:20:25 50° ENE 09:24:30 10° N
CZ-2D R/B 2.9 09:23:59 10° N 09:28:46 35° WNW 09:29:02 35° WNW
Cosmos 1703 3.4 09:32:08 73° NNE 09:32:08 73° NNE 09:35:43 10° N
AQUA 4.3 09:31:38 10° N 09:36:07 42° WNW 09:36:12 42° WNW
GPS 2-04 Rocket1 4.0 09:39:12 26° ESE 09:39:12 26° ESE 09:41:04 10° E
Cosmos 1943 3.4 09:37:59 41° S 09:39:53 67° ESE 09:45:32 10° NNE
ATLAS 2A CENTAUR R/B 4.3 09:33:43 29° SW 09:43:31 51° S 09:51:41 10° ESE
Cosmos 2154 Rocket 4.0 09:46:09 10° NNW 09:52:23 61° W 09:54:59 35° SSW
[s.n.52708] 4.0 09:53:18 37° ENE 09:53:18 37° ENE 09:55:17 10° NE
[s.n.52707] 4.0 09:53:24 37° ENE 09:53:24 37° ENE 09:55:24 10° NE
[s.n.52703] 3.9 09:53:31 37° ENE 09:53:31 37° ENE 09:55:30 10° NE
[s.n.52705] 3.9 09:53:37 38° ENE 09:53:37 38° ENE 09:55:37 10° NE
[s.n.52706] 3.9 09:53:44 38° ENE 09:53:44 38° ENE 09:55:44 10° NE
[s.n.52701] 3.9 09:53:50 38° ENE 09:53:50 38° ENE 09:55:51 10° NE
[s.n.52704] 3.9 09:53:58 38° ENE 09:53:58 38° ENE 09:55:58 10° NE
[s.n.52699] 3.9 09:54:04 38° ENE 09:54:04 38° ENE 09:56:05 10° NE
[s.n.52702] 3.9 09:54:11 39° ENE 09:54:11 39° ENE 09:56:12 10° NE
[s.n.52697] 3.9 09:54:18 39° ENE 09:54:18 39° ENE 09:56:20 10° NE
[s.n.52700] 3.9 09:54:24 39° ENE 09:54:24 39° ENE 09:56:26 10° NE
[s.n.52695] 3.9 09:54:31 39° ENE 09:54:31 39° ENE 09:56:34 10° NE
[s.n.52698] 3.8 09:54:38 39° ENE 09:54:38 39° ENE 09:56:41 10° NE
[s.n.52693] 3.8 09:54:45 40° ENE 09:54:45 40° ENE 09:56:48 10° NE
[s.n.52696] 3.8 09:54:51 40° ENE 09:54:51 40° ENE 09:56:55 10° NE
[s.n.52691] 3.8 09:54:58 40° ENE 09:54:58 40° ENE 09:57:02 10° NE
[s.n.52689] 3.8 09:55:05 40° ENE 09:55:05 40° ENE 09:57:10 10° NE
[s.n.52694] 3.8 09:55:12 41° ENE 09:55:12 41° ENE 09:57:16 10° NE
[s.n.52692] 3.8 09:55:19 41° ENE 09:55:19 41° ENE 09:57:23 10° NE
[s.n.52687] 3.8 09:55:25 41° ENE 09:55:25 41° ENE 09:57:30 10° NE
[s.n.52685] 3.8 09:55:32 41° ENE 09:55:32 41° ENE 09:57:38 10° NE
[s.n.52690] 3.8 09:55:39 42° ENE 09:55:39 42° ENE 09:57:45 10° NE
[s.n.52688] 3.7 09:55:46 42° ENE 09:55:46 42° ENE 09:57:51 10° NE
[s.n.52683] 3.7 09:55:52 42° ENE 09:55:52 42° ENE 09:57:59 10° NE
[s.n.52686] 3.7 09:55:59 42° ENE 09:55:59 42° ENE 09:58:06 10° NE
[s.n.52681] 3.7 09:56:06 42° ENE 09:56:06 42° ENE 09:58:14 10° NE
[s.n.52679] 3.7 09:56:13 43° ENE 09:56:13 43° ENE 09:58:21 10° NE
[s.n.52684] 3.7 09:56:20 43° ENE 09:56:20 43° ENE 09:58:28 10° NE
[s.n.52682] 3.7 09:56:27 43° ENE 09:56:27 43° ENE 09:58:35 10° NE
[s.n.52677] 3.7 09:56:34 43° ENE 09:56:34 43° ENE 09:58:43 10° NE
[s.n.52680] 3.7 09:56:41 44° ENE 09:56:41 44° ENE 09:58:50 10° NE
[s.n.52675] 3.6 09:56:47 44° ENE 09:56:47 44° ENE 09:58:57 10° NE
EO 1 Del DPAF 4.3 09:53:06 10° N 09:55:38 28° NW 09:55:38 28° NW
[s.n.52678] 3.6 09:56:54 44° ENE 09:56:54 44° ENE 09:59:04 10° NE
[s.n.52673] 3.6 09:57:02 44° ENE 09:57:02 44° ENE 09:59:12 10° NE
Resurs 1-4 Rocket 3.7 09:52:57 10° NNW 09:56:30 19° WNW 09:57:19 18° WNW
[s.n.52676] 3.6 09:57:09 45° ENE 09:57:09 45° ENE 09:59:19 10° NE
[s.n.52671] 3.6 09:57:17 45° ENE 09:57:17 45° ENE 09:59:27 10° NE
[s.n.52669] 3.6 09:57:23 45° ENE 09:57:23 45° ENE 09:59:34 10° NE
[s.n.52674] 3.6 09:57:30 46° ENE 09:57:30 46° ENE 09:59:41 10° NE
[s.n.52672] 3.6 09:57:36 46° ENE 09:57:36 46° ENE 09:59:48 10° NE
[s.n.52667] 3.6 09:57:45 46° ENE 09:57:45 46° ENE 09:59:56 10° NE
Meteor 1-28 Rocket 3.9 09:57:55 38° WNW 09:57:55 38° WNW 10:00:46 10° NNW
[s.n.52665] 3.5 09:57:51 46° ENE 09:57:51 46° ENE 10:00:03 10° NE
[s.n.52670] 3.5 09:57:58 47° ENE 09:57:58 47° ENE 10:00:11 10° NE
[s.n.52668] 3.5 09:58:05 47° ENE 09:58:05 47° ENE 10:00:18 10° NE
[s.n.52666] 3.5 09:58:12 47° ENE 09:58:12 47° ENE 10:00:26 10° NE
[s.n.52663] 3.5 09:58:19 47° ENE 09:58:19 47° ENE 10:00:32 10° NE
[s.n.52662] 3.5 09:58:26 48° ENE 09:58:26 48° ENE 10:00:40 10° NE
[s.n.52664] 3.5 09:58:33 48° ENE 09:58:33 48° ENE 10:00:48 10° NE
[s.n.52661] 3.5 09:58:41 48° ENE 09:58:41 48° ENE 10:00:55 10° NE
[s.n.52660] 3.4 09:58:47 49° ENE 09:58:47 49° ENE 10:01:02 10° NE
[s.n.52656] 3.4 09:58:55 48° ENE 09:58:55 48° ENE 10:01:09 10° NE
[s.n.52658] 3.4 09:59:02 49° ENE 09:59:02 49° ENE 10:01:17 10° NE
[s.n.52659] 3.4 09:59:08 50° ENE 09:59:08 50° ENE 10:01:25 10° NE
[s.n.52657] 3.4 09:59:17 49° ENE 09:59:17 49° ENE 10:01:33 10° NE
SL-16 R/B 3.1 10:00:07 33° WSW 10:01:07 34° W 10:06:44 10° NW
Cosmos 1943 Rocket 2.7 10:00:12 10° NW 10:05:24 38° WSW 10:06:33 34° SW
Cosmos 1408 4.0 10:04:50 18° SSE 10:07:04 35° E 10:10:25 10° NNE
FENGYUN 3A 4.3 10:01:58 10° NNE 10:07:12 50° E 10:11:39 14° S
Cosmos 2297 3.9 10:02:01 10° NNW 10:07:32 49° WSW 10:10:28 26° SSW
Cosmos 2228 3.0 10:05:41 10° NNW 10:09:57 58° W 10:11:19 39° SSW
SEDSat Delta rocket 4.3 10:07:15 31° SW 10:10:10 51° SSE 10:16:39 10° E
ADEOS II 3.3 10:07:37 10° NNW 10:11:53 26° WNW 10:13:19 23° W
IDEFIX/ARIANE 42P 3.6 10:07:40 10° N 10:12:16 31° WNW 10:13:52 26° WSW
ARIANE 5 R/B 3.8 10:07:54 10° NNE 10:12:31 35° E 10:17:04 10° SSE
CBERS-1 3.9 10:10:29 10° N 10:15:37 82° WNW 10:18:36 26° SSW
Cosmos 2056 Rocket 3.6 10:14:37 22° S 10:17:57 71° ESE 10:23:10 10° NNE
OAO 2 Rocket 3.2 10:16:58 32° WSW 10:19:12 70° SSE 10:24:05 10° E
Cosmos 2058 Rocket 4.2 10:16:01 10° N 10:20:13 44° E 10:24:21 10° SSE
NOSS 3-3 (A) 4.4 10:23:18 24° WSW 10:26:17 43° NW 10:32:10 10° NNE
NOSS 3-3 (C) 4.4 10:23:24 24° WSW 10:26:22 44° NW 10:32:16 10° NNE
IRS-1D 4.3 10:22:47 10° N 10:27:41 38° WNW 10:30:15 24° WSW
Cosmos 1271 Rocket 4.1 10:25:05 10° NW 10:27:50 21° W 10:27:50 21° W
SL-16 R/B 4.3 10:28:19 10° WNW 10:30:03 11° NW 10:31:47 10° NNW
Cosmos 2251 Rocket 3.6 10:25:46 10° NNW 10:30:55 57° WSW 10:36:06 10° S
DNEPR-1 R/B 4.3 10:29:53 25° WSW 10:31:42 36° NW 10:35:51 10° NNE
Cosmos 2369 Rocket 2.1 10:26:38 10° NNW 10:32:10 65° WSW 10:37:41 10° S
Cosmos 1241 Rocket 4.4 10:32:14 20° SSW 10:36:37 79° WNW 10:42:50 10° NNE
Cosmos 2218 Rocket 4.0 10:31:13 10° N 10:37:30 86° W 10:43:49 10° S
Cosmos 1656 Rocket 3.5 10:34:01 10° NNW 10:39:25 72° WSW 10:44:48 10° SSE
IRS-P3 4.2 10:35:13 10° NNE 10:40:35 79° ESE 10:45:54 10° S
Cosmos 1606 Rocket 4.1 10:38:36 10° NNW 10:42:39 37° W 10:45:25 18° SSW
In-Cosmos 22 Rocket 4.5 10:38:10 10° S 10:43:54 75° E 10:49:44 10° NNE
Cosmos 2181 Rocket 4.2 10:42:09 15° SSW 10:47:10 51° W 10:53:09 10° N
Helios 1B rocket 3.1 10:44:06 10° N 10:47:50 36° WNW 10:50:15 19° SW
ATLAS 3B CENTAUR R/B 3.6 10:48:03 10° S 10:50:29 15° SE 10:53:42 10° ESE
PAYLOAD A 3.8 10:46:38 10° N 10:51:22 72° WNW 10:56:14 10° SSW
CZ-2D R/B 3.7 10:47:34 10° NNE 10:51:33 64° ESE 10:55:26 10° S
ALOS 2.3 10:47:45 10° N 10:52:23 66° WNW 10:56:51 11° SSW
Cosmos 1959 Rocket 4.5 10:46:30 10° NNW 10:52:40 67° W 10:58:44 10° S
Meteor 1-29 2.8 10:49:24 10° NNE 10:52:40 87° ESE 10:55:50 11° SSW
Cosmos 2098 4.0 10:51:44 10° N 10:54:44 89° SW 10:57:49 10° S
MOS 1-B Rocket 4.0 10:50:57 10° S 10:56:28 52° W 11:01:59 10° NNW
Genesis I 3.5 10:53:08 10° NNW 10:57:10 71° ENE 11:01:04 10° SE
CZ-2C R/B 2.6 10:53:59 10° N 10:59:00 60° WNW 11:03:50 10° SSW
Okean 1-7 Rocket 3.5 10:55:05 10° SSW 10:59:30 71° W 11:03:54 10° N
Cosmos 1420 Rocket 4.3 11:00:32 12° SW 11:05:10 51° WNW 11:10:14 10° N
Chunghua 1 4.4 11:01:56 10° W 11:05:23 57° SSW 11:08:52 10° ESE
Lacrosse 4 Rocket 1.5 11:03:47 11° SSW 11:07:55 70° WNW 11:12:10 10° NNE
Intercosmos 25 Rocket 4.2 11:06:48 10° N 11:10:30 62° E 11:16:03 10° SSE
Cosmos 1825 2.2 11:11:45 10° SSW 11:15:23 56° W 11:19:03 10° N
GPS 2-04 Rocket1 2.4 11:13:10 10° W 11:16:37 82° N 11:20:13 10° E
Cosmos 407 Rocket 4.0 11:12:30 10° NW 11:17:20 37° W 11:22:06 10° SSW
Cosmos 1602 Rocket 3.6 11:13:10 10° S 11:17:38 84° W 11:22:06 10° N
Cosmos 1633 2.8 11:19:03 10° S 11:22:33 71° E 11:26:05 10° NNE
Cosmos 1452 Rocket 3.6 11:17:31 10° SSW 11:22:48 87° ESE 11:28:06 10° NNE
METEOR-M 4.3 11:20:02 10° N 11:25:16 56° WNW 11:30:27 10° SSW
SL-08 R/B 3.2 11:21:30 10° S 11:26:06 80° W 11:30:43 10° NNW
Cosmos 1140 Rocket 4.4 11:22:48 10° NW 11:27:12 28° W 11:31:35 10° SSW
SeaSat 1 2.9 11:25:05 10° NNE 11:29:49 48° WNW 11:34:31 10° SW
